TIME,DELAY(SENSOR),PRES,OXYGEN,RAWTEMP,T(OPTODE),TCPHASE,FLUOR,BETA(BETA700),BETA(BETA412),BETA(BETA440),CDOM,C(CSC),ED(ED411.90),ED(ED443.80),ED(ED489.40),ED(ED554.70),LU(LU412.20),LU(LU443.80),LU(LU489.40),LU(LU555.00),COMP,TILTX,TILTY,CHECK
1377553508,5805,918.9799804687500000,114.2872009277343800,417.8445129394531000,10.0580797195434570,43.2881813049316400,90,2658,49,50,56,10296,2146961718,2147517494,2147290569,2147494006,2147083017,2146935524,2147699209,2147123264,1209,-1,8,62824
1377557104,5806,1044.3800048828125000,150.0285949707031200,508.2503967285156000,7.2733039855957030,41.5587882995605500,90,2717,49,50,57,10288,2146962413,2147519140,2147298038,2147512356,2147085385,2146923520,2147719625,2147118555,3415,-1,8,12021
1377560704,5803,1075.0300292968750000,169.0298004150390600,525.1682128906250000,6.7464990615844730,40.4095382690429700,93,2755,49,51,56,10292,2146963053,2147522322,2147300260,2147510290,2147086509,2146924224,2147720978,2147118528,1392,0,8,20677
1377564304,5805,1080.8299560546875000,156.8677062988281200,525.7313232421875000,6.7289280891418460,41.3257293701171900,94,2754,49,50,57,10253,2146963282,2147517293,2147304402,2147518162,2147085577,2146921462,2147717851,2147119725,2547,-1,8,65001
1377567904,5808,1078.7299804687500000,154.2667999267578000,525.4038085937500000,6.7391448020935060,41.5202903747558600,92,2756,50,51,56,10256,2146965302,2147519670,2147300918,2147513728,2147085668,2146920045,2147720969,2147121234,298,0,8,54980
1377571504,5807,1084.2199707031250000,150.3197937011718800,525.4312744140625000,6.7382869720458980,41.8311195373535160,92,2756,49,51,56,10257,2146962166,2147515620,2147303725,2147514450,2147082203,2146920466,2147720539,2147121901,717,0,8,58177
1377575104,5805,1091.0200195312500000,165.5899963378906200,525.2670288085938000,6.7434158325195310,40.6615104675293000,94,2760,49,50,55,10255,2146963858,2147517924,2147301668,2147513654,2147082642,2146919049,2147720731,2147124672,602,0,8,30249
1377578704,5808,1076.6899414062500000,168.3439025878906200,515.2451782226562000,7.0557370185852050,40.2849006652832000,94,2762,49,50,55,10252,2146961737,2147517988,2147300178,2147511725,2147081270,2146917659,2147716187,2147121142,3580,-1,8,38510
1377582304,5806,1077.4699707031250000,171.4868011474609400,514.9871826171875000,7.0637669563293460,40.0546302795410160,94,2768,49,50,56,10253,2146968585,2147517257,2147299264,2147514011,2147084626,2146922075,2147716653,2147121810,309,0,8,1381
1377585904,5805,1075.3000488281250000,139.7949066162109400,514.8828735351562000,7.0670151710510250,42.5113296508789060,94,2775,50,50,55,10253,2146964900,2147517092,2147300416,2147513974,2147085037,2146917842,2147722331,2147121974,3343,-1,8,38080
1377589504,5807,1061.8599853515625000,166.2904052734375000,506.6918945312500000,7.3217329978942870,40.2861289978027340,94,2781,49,50,55,10249,2146963858,2147516169,2147297115,2147509833,2147084342,2146921545,2147716123,2147122459,3364,-1,8,38034
1377593104,5803,1061.6500244140625000,165.7364044189453000,504.9614868164062500,7.3754858970642090,40.2960090637207000,95,2790,50,50,55,10242,2146965970,2147515483,2147299364,2147511689,2147086226,2146921874,2147713462,2147119524,2647,-1,8,25666
1377596704,5805,1048.4100341796875000,152.2472991943359400,507.4256896972656000,7.2989339828491210,41.3674812316894500,94,2802,48,50,56,10246,2146962843,2147515026,2147300022,2147510491,2147086336,2146920960,2147714358,2147120585,563,-1,8,63826
1377600304,5806,1035.5000000000000000,167.4257965087890600,500.1005859375000000,7.5263719558715820,40.0885505676269500,95,2806,49,50,55,10249,2146965385,2147516141,2147299547,2147509988,2147083355,2146918272,2147714112,2147122258,3329,0,8,35371
1377603904,5804,1033.3000488281250000,164.3699951171875000,499.7344970703125000,7.5377311706542970,40.3075714111328100,96,2812,50,50,55,10245,2146962176,2147517184,2147299200,2147507117,2147082688,2146922084,2147718043,2147123181,2611,-1,8,44942
1377607504,5804,1032.4100341796875000,171.8264007568359400,500.1557006835937500,7.5246629714965820,39.7719383239746100,96,2820,50,50,55,10248,2146962422,2147517750,2147301083,2147509933,2147083547,2146919542,2147713828,2147121526,2636,-1,8,31214
1377611104,5806,1028.5799560546875000,151.0930938720703000,488.8197937011719000,7.8759379386901855,41.1430091857910160,95,2824,49,51,56,10242,2146964992,2147520905,2147298313,2147508425,2147083501,2146927460,2147712320,2147120630,948,0,8,53492
1377614704,5805,1026.6400146484375000,136.3908996582031200,486.5729064941406000,7.9454650878906250,42.3267593383789060,97,2827,49,51,55,10239,2146966628,2147515712,2147298898,2147508617,2147084498,2146923053,2147714925,2147123328,1584,-1,8,46075
1377618304,5805,1024.0699462890625000,155.3352050781250000,485.8794860839844000,7.9669141769409180,40.7575607299804700,95,2828,48,50,55,10236,2146960932,2147516900,2147299382,2147506468,2147082294,2146927698,2147708982,2147122240,3502,-1,8,41498
1377621904,5805,1029.5600585937500000,152.4557037353515600,485.8078002929687500,7.9691338539123535,40.9832916259765600,96,2837,50,50,56,10237,2146962230,2147516891,2147299026,2147508379,2147082514,2146919488,2147712228,2147121901,3493,-1,8,17914
1377625504,5803,1023.8800048828125000,156.3675994873047000,486.2438964843750000,7.9556431770324710,40.6826591491699200,98,2840,49,50,55,10237,2146962294,2147516964,2147300480,2147508434,2147085156,2146921837,2147709650,2147122249,3484,-1,8,39766
1377629104,5807,1020.8400268554688000,159.4239044189453000,487.3909912109375000,7.9201560020446780,40.4670486450195300,97,2843,49,51,55,10235,2146965238,2147513545,2147297179,2147507346,2147086656,2146926829,2147710729,2147124955,3438,-1,8,54864
1377632704,5805,1024.6099853515625000,161.0339050292968800,486.5114135742187500,7.9473700523376465,40.3303985595703100,97,2846,50,50,56,10231,2146961206,2147517476,2147299218,2147507785,2147084224,2146920448,2147711021,2147120722,3435,-1,8,34887
1377636304,5805,1020.3400268554688000,159.3950958251953000,487.8544921875000000,7.9058117866516110,40.4777603149414060,97,2847,49,50,56,10237,2146965211,2147519524,2147300114,2147507337,2147083556,2146924525,2147713536,2147120054,293,0,8,961
1377639904,5806,1020.3499755859375000,161.5749969482422000,488.1241149902344000,7.8974680900573730,40.3171005249023440,98,2852,48,50,55,10229,2146963172,2147514203,2147299995,2147508717,2147087908,2146925248,2147709933,2147124626,3432,-1,8,45907
1377643504,5800,1022.7299804687500000,149.5330963134765600,489.7392883300781000,7.8474750518798830,41.2823410034179700,98,2858,49,50,56,10235,2146964580,2147519341,2147297453,2147509595,2147084928,2146925878,2147712603,2147121225,3409,-1,8,59087
1377647104,5810,1023.7100219726562000,169.5532989501953000,489.6763916015625000,7.8494238853454590,39.7536392211914060,98,2861,49,50,56,10233,2146965769,2147516571,2147297088,2147510180,2147082989,2146923501,2147708050,2147122761,3592,-1,8,59701
1377650704,5803,1018.6799926757812000,167.7460021972656200,490.3236083984375000,7.8293881416320800,39.8971405029296900,97,2863,50,50,56,10234,2146962313,2147516297,2147296365,2147508918,2147082057,2146922596,2147712658,2147121024,113,-1,8,23425
1377654304,5808,1019.5000000000000000,164.6443023681640600,490.8772888183594000,7.8122429847717285,40.1336898803710940,98,2872,48,50,55,10229,2146961828,2147516004,2147298688,2147507958,2147086866,2146923044,2147711789,2147122889,58,0,8,29878
1377657904,5807,1026.1600341796875000,163.1869049072265600,488.9960021972656000,7.8704829216003420,40.2105712890625000,98,2882,49,50,55,10227,2146959533,2147517641,2147296996,2147506304,2147085778,2146919360,2147711963,2147123108,347,0,8,52532
1377661504,5807,1022.3599853515625000,157.2023925781250000,488.9182128906250000,7.8728909492492680,40.6636810302734400,99,2893,49,50,56,10230,2146962715,2147515666,2147298843,2147508900,2147085942,2146928292,2147713526,2147122331,362,-1,8,50792
1377665104,5808,1026.3100585937500000,167.1481933593750000,487.8493957519531000,7.9059710502624510,39.8973884582519500,99,2896,49,50,56,10228,2146963593,2147516690,2147300827,2147507035,2147087552,2146926134,2147708918,2147120722,894,-1,8,47640
1377668704,5806,1030.4100341796875000,171.1483001708984400,487.9410095214844000,7.9031338691711430,39.6092796325683600,98,2900,48,50,55,10227,2146966235,2147518043,2147296676,2147507218,2147086116,2146922057,2147712850,2147123474,1293,-1,8,58265
1377672304,5807,1031.0999755859375000,166.2503967285156200,487.5893859863281000,7.9140138626098630,39.9596099853515600,99,2909,49,50,54,10228,2146961280,2147515940,2147301046,2147508443,2147087478,2146917494,2147712685,2147124699,879,-1,8,62153
1377675904,5806,1036.6600341796875000,143.9994964599609400,486.4655151367187500,7.9487881660461430,41.6797294616699200,100,2914,49,51,55,10224,2146967780,2147516754,2147297316,2147510966,2147087350,2146917833,2147712000,2147120950,269,0,8,64911
1377679504,5806,1015.9299926757812000,149.3126983642578000,477.0892944335937500,8.2385749816894530,41.0880813598632800,99,2918,49,50,55,10229,2146963190,2147515382,2147297170,2147505417,2147084041,2146927414,2147708361,2147120877,3332,-1,8,45797
1377683104,5807,1016.9799804687500000,160.7398071289062500,476.7609863281250000,8.2487154006958000,40.1868209838867200,99,2923,48,51,56,10231,2146963986,2147519131,2147295570,2147503561,2147085046,2146918838,2147711387,2147122669,140,-1,8,52780
1377686704,5806,1009.0599975585938000,137.1425018310547000,476.6528930664062500,8.2520532608032230,42.0975303649902340,99,2928,48,50,56,10226,2146965997,2147518528,2147297837,2147507492,2147087689,2146924580,2147711798,2147122304,3474,-1,8,1388
1377690304,5802,1008.7500000000000000,145.6719970703125000,477.1459045410156000,8.2368288040161130,41.3855895996093750,99,2932,49,50,56,10189,2146965056,2147519981,2147298496,2147506706,2147082624,2146922285,2147709750,2147119698,3485,-1,8,17927
1377693904,5807,1010.4699707031250000,135.2279968261718800,477.2416992187500000,8.2338714599609380,42.2732887268066400,100,2938,48,50,56,10192,2146966445,2147516178,2147297398,2147506441,2147087917,2146922560,2147706523,2147123346,94,0,8,62115
1377696656,5808,1013.3300170898438000,130.3074951171875000,477.6933898925781000,8.2199220657348630,42.7161712646484400,100,2941,48,51,56,10260,2146963657,2147519670,2147296941,2147505837,2147085174,2146924608,2147711753,2147122148,297,0,8,45591
